Boise, ID

7:47 PM MDT on July 24, 2017 (GMT -0600)
Boise Air Term

Weather History for KBOI - January, 2014

Change the Weather History Date:

Tuesday, January 28, 2014

  Actual Average Record
Temperature  
Mean Temperature 28 °F 33 °F  
Max Temperature 30 °F 40 °F 61 °F (1888)
Min Temperature 25 °F 26 °F -6 °F (1957)
Degree Days  
Heating Degree Days 37 32  
Month to date heating degree days 970 950  
Since 1 July heating degree days 3528 3265  
Cooling Degree Days 0 0  
Month to date cooling degree days 0 0  
Year to date cooling degree days 0 0  
Moisture  
Dew Point 23 °F    
Average Humidity 85    
Maximum Humidity 92    
Minimum Humidity 78    
Precipitation  
Precipitation T in 0.04 in 0.77 in (1965)
Month to date precipitation 0.33 1.14  
Year to date precipitation 0.33 1.14  
Snow  
Snow T in 0.10 in 4.80 in (1916)
Month to date snowfall 3.2 4.7  
Since 1 July snowfall 10.1 14.4  
Snow Depth 0.00 in    
Sea Level Pressure  
Sea Level Pressure 30.39 in    
Wind  
Wind Speed 4 mph (South)    
Max Wind Speed 13 mph    
Max Gust Speed 16 mph    
Visibility 8 miles    
Events Snow    
T = Trace of Precipitation, MM = Missing Value Source: NWS Daily Summary

Daily Weather History Graph

Daily Weather History Graph

Search for Another Location

Airport or City:

Trip Planner

Search our weather history database for the weather conditions in past years. The results will help you decide how hot, cold, wet, or windy it might be!

Date:

Astronomy

Jan. 28, 2014 Rise Set
Actual Time 8:05 AM MST 5:51 PM MST
Civil Twilight 7:34 AM MST 6:21 PM MST
Nautical Twilight 6:59 AM MST 6:56 PM MST
Astronomical Twilight 6:26 AM MST 7:30 PM MST
Moon 5:52 AM MST (1/28) 3:45 PM MST (1/28)
Length of Visible Light 10h 47m
Length of Day
9h 45m
Waning Crescent, 7% of the Moon is Illuminated
Jan 28
Waning Crescent
Jan 30
New
Feb 6
First Quarter
Feb 14
Full
Feb 22
Last Quarter

Hourly Weather History & Observations

Time (MST) Temp. Windchill Dew Point Humidity Pressure Visibility Wind Dir Wind Speed Gust Speed Precip Events Conditions
12:53 AM 26.1 °F 16.8 °F 23.0 °F 88% 30.44 in 8.0 mi SSE 9.2 mph - N/A   Overcast
1:53 AM 26.1 °F 17.6 °F 23.0 °F 88% 30.43 in 7.0 mi SSE 8.1 mph - N/A   Overcast
2:53 AM 25.0 °F 14.2 °F 23.0 °F 92% 30.45 in 7.0 mi SSE 11.5 mph - N/A   Overcast
3:53 AM 26.1 °F 16.2 °F 23.0 °F 88% 30.45 in 8.0 mi SSE 10.4 mph - N/A   Overcast
4:53 AM 25.0 °F 17.1 °F 23.0 °F 92% 30.45 in 9.0 mi SSE 6.9 mph - N/A   Overcast
5:53 AM 25.0 °F 19.3 °F 23.0 °F 92% 30.45 in 8.0 mi SSE 4.6 mph - N/A   Overcast
6:53 AM 25.0 °F 18.1 °F 21.9 °F 88% 30.45 in 4.0 mi South 5.8 mph - 0.00 in Snow Light Snow
7:53 AM 25.0 °F 20.7 °F 21.9 °F 88% 30.46 in 8.0 mi South 3.5 mph - 0.00 in   Overcast
8:25 AM 24.8 °F 20.5 °F 21.2 °F 86% 30.37 in 4.0 mi SSE 3.5 mph - N/A   Overcast
8:53 AM 25.0 °F 17.1 °F 21.9 °F 88% 30.47 in 4.0 mi South 6.9 mph - N/A   Overcast
9:53 AM 26.1 °F - 23.0 °F 88% 30.47 in 6.0 mi Calm Calm - N/A   Overcast
10:53 AM 26.1 °F 20.5 °F 21.9 °F 84% 30.48 in 7.0 mi South 4.6 mph - 0.00 in   Overcast
11:31 AM 26.6 °F - 21.2 °F 80% 30.39 in 7.0 mi Calm Calm - N/A   Overcast
11:53 AM 26.1 °F 20.5 °F 21.9 °F 84% 30.47 in 7.0 mi South 4.6 mph - N/A   Overcast
12:53 PM 27.0 °F - 21.9 °F 81% 30.45 in 7.0 mi Calm Calm - N/A   Overcast
1:53 PM 28.9 °F 25.2 °F 23.0 °F 78% 30.41 in 7.0 mi NW 3.5 mph - N/A   Overcast
2:53 PM 28.9 °F 23.9 °F 23.0 °F 78% 30.40 in 7.0 mi WNW 4.6 mph - N/A   Overcast
3:00 PM 28.4 °F 23.3 °F 23.0 °F 80% 30.31 in 7.0 mi NW 4.6 mph - N/A   Overcast
3:53 PM 28.9 °F 25.2 °F 23.0 °F 78% 30.38 in 7.0 mi NW 3.5 mph - N/A   Overcast
4:53 PM 28.9 °F - 23.0 °F 78% 30.36 in 7.0 mi Calm Calm - N/A   Overcast
5:53 PM 28.9 °F 25.2 °F 24.1 °F 82% 30.35 in 9.0 mi North 3.5 mph - N/A   Overcast
6:53 PM 28.9 °F 23.9 °F 24.1 °F 82% 30.36 in 9.0 mi NW 4.6 mph - N/A   Overcast
7:53 PM 30.0 °F - 24.1 °F 79% 30.33 in 9.0 mi Calm Calm - N/A   Overcast
8:53 PM 28.9 °F - 24.1 °F 82% 30.35 in 10.0 mi Calm Calm - N/A   Overcast
9:53 PM 28.9 °F - 25.0 °F 85% 30.30 in 10.0 mi Calm Calm - N/A   Mostly Cloudy
10:28 PM 28.4 °F - 24.8 °F 86% 30.23 in 10.0 mi Calm Calm - N/A   Overcast
10:29 PM 28.4 °F - 24.8 °F 86% 30.23 in 10.0 mi Calm Calm - N/A   Overcast
10:30 PM 28.4 °F - 24.8 °F 86% 30.23 in 10.0 mi Calm Calm - N/A   Overcast
10:53 PM 28.9 °F - 25.0 °F 85% 30.30 in 10.0 mi Calm Calm - N/A   Overcast
11:53 PM 28.9 °F - 25.0 °F 85% 30.28 in 9.0 mi Calm Calm - N/A   Overcast